Oskaloosa, IA

10:41 AM CDT on September 25, 2017 (GMT -0500)
Oskaloosa Municipal

Weather History for KOOA - March, 2014

Change the Weather History Date:

Wednesday, March 19, 2014

  Actual Average (KOTM) Record (KOTM)
Temperature  
Mean Temperature 35 °F -  
Max Temperature 41 °F 48 °F 81 °F (2012)
Min Temperature 29 °F 31 °F -6 °F (1923)
Degree Days  
Heating Degree Days 30    
Moisture  
Dew Point 30 °F    
Average Humidity 83    
Maximum Humidity 96    
Minimum Humidity 66    
Precipitation  
Precipitation 0.01 in - - ()
Sea Level Pressure  
Sea Level Pressure 29.89 in    
Wind  
Wind Speed 15 mph (WNW)    
Max Wind Speed 25 mph    
Max Gust Speed 33 mph    
Visibility 8 miles    
Events Snow    
Averages and records for this station are not official NWS values.
T = Trace of Precipitation, MM = Missing Value Source: NWS Daily Summary

Daily Weather History Graph

Daily Weather History Graph

Search for Another Location

Airport or City:

Trip Planner

Search our weather history database for the weather conditions in past years. The results will help you decide how hot, cold, wet, or windy it might be!

Date:

Astronomy

Mar. 19, 2014 Rise Set
Actual Time 7:14 AM CDT 7:21 PM CDT
Civil Twilight 6:47 AM CDT 7:48 PM CDT
Nautical Twilight 6:15 AM CDT 8:20 PM CDT
Astronomical Twilight 5:42 AM CDT 8:53 PM CDT
Moon 10:42 PM CDT (3/19) 8:39 AM CDT (3/19)
Length of Visible Light 13h 01m
Length of Day
12h 06m
Waning Gibbous, 91% of the Moon is Illuminated
Mar 19
Waning Gibbous
Mar 23
Last Quarter
Mar 30
New
Apr 7
First Quarter
Apr 15
Full

Hourly Weather History & Observations

Time (CDT) Temp. Windchill Dew Point Humidity Pressure Visibility Wind Dir Wind Speed Gust Speed Precip Events Conditions
12:15 AM 41.2 °F 35.5 °F 38.8 °F 91% 29.58 in 7.0 mi NNW 9.2 mph - N/A   Overcast
12:35 AM 41.0 °F 34.7 °F 39.0 °F 93% 29.58 in 5.0 mi NW 10.4 mph - N/A   Overcast
12:55 AM 41.0 °F 35.8 °F 39.0 °F 93% 29.58 in 5.0 mi NNW 8.1 mph - N/A   Overcast
1:15 AM 40.8 °F 36.2 °F 39.0 °F 93% 29.57 in 5.0 mi NNW 6.9 mph - N/A   Overcast
1:35 AM 40.1 °F 34.1 °F 38.5 °F 94% 29.58 in 4.0 mi NNW 9.2 mph - N/A   Overcast
1:55 AM 40.1 °F 33.6 °F 38.3 °F 93% 29.59 in 4.0 mi NNW 10.4 mph - N/A   Overcast
2:15 AM 39.6 °F 34.0 °F 37.9 °F 94% 29.60 in 4.0 mi NNW 8.1 mph - N/A   Overcast
2:35 AM 39.4 °F 32.3 °F 37.8 °F 94% 29.61 in 3.0 mi NW 11.5 mph - N/A   Overcast
2:55 AM 38.8 °F 32.1 °F 37.4 °F 95% 29.62 in 2.5 mi NW 10.4 mph 19.6 mph N/A   Overcast
3:15 AM 38.7 °F 29.8 °F 37.4 °F 95% 29.62 in 2.5 mi NW 16.1 mph - N/A   Overcast
3:35 AM 38.7 °F 28.8 °F 37.4 °F 95% 29.61 in 2.5 mi NNW 19.6 mph - N/A   Overcast
3:55 AM 38.5 °F 30.7 °F 37.4 °F 96% 29.62 in 2.0 mi NW 12.7 mph - N/A   Overcast
4:15 AM 37.9 °F 27.9 °F 36.7 °F 95% 29.65 in 2.5 mi WNW 19.6 mph 23.0 mph N/A   Overcast
4:35 AM 37.4 °F 28.2 °F 36.1 °F 95% 29.66 in 2.5 mi WNW 16.1 mph 23.0 mph N/A   Overcast
4:55 AM 36.9 °F 27.1 °F 35.6 °F 95% 29.67 in 4.0 mi NW 17.3 mph - N/A   Overcast
5:15 AM 36.3 °F 25.2 °F 34.9 °F 95% 29.69 in 4.0 mi NW 21.9 mph 28.8 mph N/A   Overcast
5:35 AM 35.8 °F 24.2 °F 34.3 °F 94% 29.71 in 4.0 mi NW 23.0 mph 31.1 mph N/A   Overcast
5:55 AM 35.4 °F 24.3 °F 33.8 °F 94% 29.73 in 4.0 mi NW 20.7 mph 27.6 mph N/A   Overcast
6:15 AM 35.2 °F 23.8 °F 33.3 °F 92% 29.75 in 4.0 mi NW 21.9 mph 27.6 mph N/A   Overcast
6:35 AM 34.9 °F 23.0 °F 32.5 °F 91% 29.77 in 5.0 mi NW 23.0 mph 27.6 mph N/A   Overcast
6:55 AM 33.8 °F 22.2 °F 32.0 °F 93% 29.78 in 5.0 mi NW 20.7 mph 28.8 mph N/A   Overcast
7:15 AM 32.9 °F 21.6 °F 31.1 °F 93% 29.80 in 5.0 mi NW 18.4 mph 29.9 mph N/A Snow Light Snow
7:35 AM 32.5 °F 21.2 °F 31.1 °F 94% 29.81 in 5.0 mi NW 18.4 mph 26.5 mph N/A   Overcast
7:55 AM 32.9 °F 20.4 °F 31.1 °F 93% 29.83 in 7.0 mi WNW 23.0 mph 27.6 mph N/A   Overcast
8:15 AM 32.5 °F 20.2 °F 30.7 °F 93% 29.84 in 7.0 mi NW 21.9 mph 28.8 mph N/A   Overcast
8:35 AM 32.5 °F 20.2 °F 30.2 °F 91% 29.85 in 7.0 mi NW 21.9 mph 32.2 mph N/A   Overcast
8:55 AM 32.4 °F 20.3 °F 30.0 °F 91% 29.86 in 5.0 mi NW 20.7 mph 27.6 mph N/A   Overcast
9:15 AM 32.2 °F 19.4 °F 29.3 °F 89% 29.87 in 5.0 mi NW 23.0 mph 32.2 mph N/A   Overcast
9:35 AM 32.4 °F 20.9 °F 29.5 °F 89% 29.89 in 5.0 mi NW 18.4 mph 28.8 mph N/A   Overcast
9:55 AM 32.9 °F 21.3 °F 29.1 °F 86% 29.90 in 7.0 mi NW 19.6 mph 28.8 mph N/A   Overcast
10:15 AM 32.9 °F 21.0 °F 29.3 °F 87% 29.92 in 7.0 mi NW 20.7 mph 28.8 mph N/A   Overcast
10:35 AM 33.4 °F 21.4 °F 29.1 °F 84% 29.92 in 7.0 mi NW 21.9 mph 28.8 mph N/A   Overcast
10:55 AM 33.8 °F 21.0 °F 28.8 °F 82% 29.94 in 10.0 mi NW 25.3 mph 32.2 mph N/A   Overcast
11:15 AM 34.3 °F 22.3 °F 29.1 °F 81% 29.94 in 10.0 mi NW 23.0 mph 32.2 mph N/A   Overcast
11:35 AM 34.5 °F 22.3 °F 28.4 °F 78% 29.96 in 10.0 mi NW 24.2 mph 31.1 mph N/A   Overcast
11:55 AM 34.7 °F 23.1 °F 28.4 °F 78% 29.98 in 10.0 mi NW 21.9 mph 32.2 mph N/A   Overcast
12:15 PM 34.7 °F 23.4 °F 28.4 °F 78% 29.98 in 10.0 mi NW 20.7 mph 28.8 mph N/A   Overcast
12:35 PM 34.9 °F 24.2 °F 28.6 °F 78% 29.99 in 10.0 mi NW 18.4 mph 25.3 mph N/A   Overcast
12:55 PM 34.9 °F 23.6 °F 28.8 °F 78% 29.99 in 10.0 mi NW 20.7 mph 28.8 mph N/A   Overcast
1:15 PM 35.6 °F 25.9 °F 28.4 °F 75% 30.00 in 10.0 mi NW 16.1 mph 23.0 mph N/A   Overcast
1:35 PM 35.8 °F 25.1 °F 29.3 °F 77% 30.00 in 10.0 mi WNW 19.6 mph 26.5 mph N/A   Overcast
1:55 PM 36.5 °F 24.9 °F 27.7 °F 70% 30.01 in 10.0 mi WNW 24.2 mph 31.1 mph N/A   Overcast
2:15 PM 36.5 °F 26.3 °F 27.7 °F 70% 30.01 in 10.0 mi NW 18.4 mph 31.1 mph N/A   Overcast
2:35 PM 36.3 °F 24.4 °F 27.5 °F 70% 30.02 in 10.0 mi WNW 25.3 mph 33.4 mph N/A   Overcast
2:55 PM 36.7 °F 26.0 °F 27.5 °F 69% 30.02 in 10.0 mi NW 20.7 mph 32.2 mph N/A   Overcast
3:15 PM 36.9 °F 26.5 °F 27.9 °F 70% 30.02 in 10.0 mi WNW 19.6 mph - N/A   Overcast
3:35 PM 37.4 °F 26.6 °F 27.9 °F 68% 30.03 in 10.0 mi WNW 21.9 mph 25.3 mph N/A   Overcast
3:55 PM 37.9 °F 27.9 °F 27.5 °F 66% 30.03 in 10.0 mi WNW 19.6 mph 27.6 mph N/A   Overcast
4:15 PM 38.3 °F 28.1 °F 28.6 °F 68% 30.03 in 10.0 mi WNW 20.7 mph - N/A   Overcast
4:35 PM 38.5 °F 29.6 °F 28.6 °F 68% 30.03 in 10.0 mi WNW 16.1 mph - N/A   Overcast
4:55 PM 38.1 °F 29.1 °F 28.8 °F 69% 30.04 in 10.0 mi WNW 16.1 mph - N/A   Overcast
5:15 PM 37.9 °F 27.9 °F 28.2 °F 68% 30.05 in 10.0 mi WNW 19.6 mph - N/A   Overcast
5:35 PM 37.9 °F 28.5 °F 28.4 °F 69% 30.05 in 10.0 mi WNW 17.3 mph 26.5 mph N/A   Overcast
5:55 PM 38.3 °F 30.1 °F 28.0 °F 67% 30.05 in 10.0 mi WNW 13.8 mph - N/A   Overcast
6:15 PM 38.5 °F 29.9 °F 28.2 °F 67% 30.06 in 10.0 mi WNW 15.0 mph - N/A   Overcast
6:35 PM 38.3 °F 29.7 °F 28.4 °F 68% 30.07 in 10.0 mi WNW 15.0 mph - N/A   Overcast
6:55 PM 37.0 °F 29.8 °F 28.4 °F 71% 30.07 in 10.0 mi WNW 10.4 mph - N/A   Mostly Cloudy
7:15 PM 34.2 °F 28.2 °F 27.5 °F 77% 30.07 in 10.0 mi West 6.9 mph - N/A   Clear
7:35 PM 32.5 °F 25.5 °F 26.6 °F 79% 30.06 in 10.0 mi West 8.1 mph - N/A   Clear
7:55 PM 32.0 °F 25.6 °F 26.6 °F 80% 30.06 in 10.0 mi West 6.9 mph - N/A   Clear
8:15 PM 32.0 °F 27.5 °F 27.1 °F 82% 30.06 in 10.0 mi West 4.6 mph - N/A   Clear
8:35 PM 31.3 °F 27.9 °F 26.8 °F 83% 30.06 in 10.0 mi SW 3.5 mph - N/A   Clear
8:55 PM 30.7 °F 24.9 °F 26.6 °F 85% 30.06 in 10.0 mi SW 5.8 mph - N/A   Clear
9:15 PM 30.0 °F 24.1 °F 25.5 °F 83% 30.06 in 10.0 mi SSW 5.8 mph - N/A   Clear
9:35 PM 31.1 °F 26.4 °F 26.1 °F 82% 30.06 in 10.0 mi SW 4.6 mph - N/A   Clear
9:55 PM 30.2 °F 24.3 °F 25.7 °F 83% 30.06 in 10.0 mi SW 5.8 mph - N/A   Clear
10:15 PM 29.1 °F 21.3 °F 25.0 °F 85% 30.06 in 10.0 mi SSW 8.1 mph - N/A   Clear
10:35 PM 29.3 °F 21.5 °F 25.3 °F 85% 30.06 in 10.0 mi SW 8.1 mph - N/A   Clear
10:55 PM 30.0 °F 21.1 °F 25.9 °F 85% 30.05 in 10.0 mi SW 10.4 mph - N/A   Clear
11:15 PM 30.0 °F 23.2 °F 25.7 °F 84% 30.05 in 10.0 mi SSW 6.9 mph - N/A   Clear
11:35 PM 29.5 °F 23.4 °F 24.8 °F 83% 30.05 in 10.0 mi SSW 5.8 mph - N/A   Clear
11:55 PM 29.5 °F 24.5 °F 25.2 °F 84% 30.05 in 10.0 mi SSW 4.6 mph - N/A   Clear